1513951201.16,34995,7.56,73298.3,-11.27,-12.11,-12.07,0,*60
1513951202.43,34996,7.56,73292.3,-11.27,-12.11,-12.11,0,*64
1513951203.7,34997,7.56,73290.0,-11.27,-12.07,-12.11,0,*62
1513951204.97,34998,7.56,73288.5,-11.31,-12.11,-12.11,0,*6D
1513951206.24,34999,7.56,73294.8,-11.27,-12.07,-12.07,0,*6B
1513951207.52,35000,7.56,73282.3,-11.27,-12.07,-12.07,0,*63
1513951208.79,35001,7.56,73290.0,-11.27,-12.07,-12.07,0,*62
1513951210.06,35002,7.56,73308.5,-11.27,-12.11,-12.07,0,*66
1513951211.33,35003,7.56,73312.0,-11.27,-11.97,-12.07,0,*6A
1513951212.6,35004,7.56,73306.8,-11.27,-12.07,-12.07,0,*67
1513951213.88,35005,7.56,73326.5,-11.27,-12.07,-12.07,0,*66
1513951215.15,35006,7.56,73310.0,-11.31,-12.07,-12.07,0,*62
1513951216.42,35007,7.56,73322.0,-11.31,-12.15,-12.11,0,*67
1513951217.69,35008,7.56,73316.0,-11.27,-12.07,-12.07,0,*6B
1513951218.95,35009,7.56,73320.3,-11.31,-12.11,-12.15,0,*69
1513951220.23,35010,7.56,73310.8,-11.27,-12.11,-12.11,0,*62
1513951221.49,35011,7.56,73290.0,-11.31,-12.15,-12.15,0,*64
1513951222.76,35012,7.56,73284.3,-11.31,-12.11,-12.15,0,*63
1513951224.02,35013,7.56,73298.3,-11.31,-12.15,-12.15,0,*66
1513951225.27,35014,7.56,73294.3,-11.31,-12.15,-12.21,0,*66
1513951226.52,35015,7.56,73288.0,-11.31,-12.11,-12.21,0,*63
1513951227.76,35016,7.56,73286.8,-11.31,-12.15,-12.21,0,*64
1513951229.03,35017,7.56,73284.3,-11.33,-12.15,-12.21,0,*67
1513951230.28,35018,7.56,73288.0,-11.31,-12.15,-12.21,0,*6A
1513951231.53,35019,7.56,73282.5,-11.31,-12.15,-12.21,0,*6B
1513951232.77,35020,7.56,73286.3,-11.31,-12.15,-12.21,0,*61
1513951234.02,35021,7.56,73290.8,-11.31,-12.15,-12.21,0,*60
1513951235.28,35022,7.56,73272.8,-11.31,-12.15,-12.15,0,*64
1513951236.55,35023,7.56,73276.3,-11.31,-12.15,-12.11,0,*61
1513951237.84,35024,7.56,73288.3,-11.33,-12.15,-12.15,0,*60
1513951239.11,35025,7.56,73288.0,-11.31,-12.15,-12.15,0,*63
1513951240.38,35026,7.56,73278.0,-11.31,-12.11,-12.15,0,*64
1513951241.64,35027,7.56,73288.5,-11.31,-12.15,-12.15,0,*61
1513951242.91,35028,7.56,73290.0,-11.31,-12.15,-12.15,0,*6E
1513951244.17,35029,7.56,73292.5,-11.31,-12.11,-12.15,0,*6B
1513951245.46,35030,7.56,73288.0,-11.33,-12.11,-12.15,0,*61
1513951246.76,35031,7.56,73280.0,-11.33,-12.11,-12.11,0,*64
1513951248.02,35032,7.56,73278.5,-11.31,-12.11,-12.11,0,*65
1513951249.29,35033,7.56,73278.8,-11.31,-12.15,-12.11,0,*60
1513951250.54,35034,7.63,73262.0,-11.31,-12.11,-12.03,0,*60
1513951251.78,35035,7.56,73246.8,-11.31,-12.11,-12.03,0,*61
1513951253.03,35036,7.56,73222.3,-11.31,-12.11,-12.03,0,*62
1513951254.32,35037,7.56,73238.3,-11.33,-12.11,-12.11,0,*62
1513951255.61,35038,7.56,73204.8,-11.33,-12.15,-12.11,0,*69
1513951256.91,35039,7.56,73220.5,-11.33,-12.15,-12.11,0,*68
1513951258.18,35040,7.56,73260.5,-11.31,-12.11,-12.11,0,*60
1513951259.44,35041,7.56,73280.8,-11.31,-12.11,-11.97,0,*6C
1513951260.71,35042,7.56,73294.5,-11.31,-12.11,-12.11,0,*62
1513951261.98,35043,7.56,73296.8,-11.33,-12.03,-12.11,0,*62
1513951263.25,35044,7.56,73280.5,-11.35,-12.07,-12.07,0,*60
1513951264.51,35045,7.56,73262.3,-11.33,-12.03,-12.11,0,*64
1513951265.78,35046,7.56,73270.3,-11.33,-12.03,-12.11,0,*67
1513951267.04,35047,7.56,73300.8,-11.33,-12.11,-12.03,0,*66
1513951268.29,35048,7.56,73266.0,-11.33,-12.03,-12.03,0,*6A
1513951269.58,35049,7.56,73208.5,-11.33,-11.97,-12.11,0,*66
1513951270.82,35050,7.56,73200.8,-11.33,-12.03,-12.03,0,*63
1513951272.08,35051,7.56,73230.0,-11.33,-12.03,-12.11,0,*61
1513951273.37,35052,7.56,73248.3,-11.33,-12.11,-12.11,0,*61
1513951274.64,35053,7.56,73272.8,-11.35,-12.15,-12.15,0,*66
1513951275.88,35054,7.56,73292.5,-11.33,-12.03,-12.03,0,*67
1513951277.15,35055,7.56,73274.3,-11.35,-12.15,-12.15,0,*60
1513951278.44,35056,7.56,73272.3,-11.33,-12.11,-11.97,0,*68
1513951279.68,35057,7.56,73284.8,-11.33,-12.03,-12.03,0,*64
1513951280.89,35058,7.56,73318.8,-11.31,-12.03,-12.03,0,*69
1513951282.11,35059,7.56,73316.8,-11.31,-12.03,-12.03,0,*68
1513951283.38,35060,7.56,73322.8,-11.33,-11.97,-12.03,0,*6E
1513951284.67,35061,7.56,73320.3,-11.33,-11.97,-11.97,0,*61
1513951285.96,35062,7.56,73322.3,-11.33,-11.97,-11.97,0,*62
1513951287.25,35063,7.56,73332.3,-11.33,-11.97,-11.97,0,*63
1513951288.54,35064,7.56,73330.0,-11.33,-11.97,-11.89,0,*6B
1513951289.83,35065,7.56,73324.8,-11.33,-11.97,-11.89,0,*6A
1513951291.12,35066,7.56,73320.5,-11.33,-11.97,-11.97,0,*66
1513951292.36,35067,7.56,73324.8,-11.35,-12.03,-12.07,0,*65
1513951293.6,35068,7.56,73334.5,-11.33,-12.03,-12.03,0,*68
1513951294.87,35069,7.56,73318.8,-11.33,-12.03,-11.89,0,*68
1513951296.16,35070,7.56,73328.3,-11.33,-11.97,-11.85,0,*62
1513951297.45,35071,7.56,73336.8,-11.33,-11.97,-11.97,0,*60
1513951298.74,35072,7.56,73330.0,-11.33,-11.97,-11.97,0,*63
1513951300.03,35073,7.56,73326.3,-11.33,-11.97,-11.97,0,*62
1513951301.27,35074,7.56,73324.3,-11.33,-12.03,-12.03,0,*65
1513951302.54,35075,7.56,73330.5,-11.33,-11.89,-12.03,0,*65
1513951303.8,35076,7.56,73332.0,-11.33,-12.03,-11.97,0,*69
1513951305.04,35077,7.56,73320.5,-11.31,-12.03,-11.89,0,*65
1513951306.31,35078,7.56,73322.5,-11.31,-11.97,-11.97,0,*6B
1513951307.52,35079,7.56,73328.0,-11.31,-12.03,-12.03,0,*6A
1513951308.74,35080,7.56,73334.3,-11.31,-12.03,-12.03,0,*6C
1513951309.99,35081,7.56,73322.8,-11.31,-11.97,-12.03,0,*63
1513951311.25,35082,7.56,73316.5,-11.33,-12.03,-11.97,0,*62
1513951312.49,35083,7.56,73312.8,-11.31,-12.03,-11.97,0,*61
1513951313.73,35084,7.56,73308.3,-11.31,-12.03,-11.97,0,*66
1513951314.99,35085,7.56,73308.5,-11.33,-11.97,-12.03,0,*65
1513951316.23,35086,7.56,73308.8,-11.33,-12.03,-12.03,0,*68
1513951317.45,35087,7.56,73318.5,-11.31,-12.03,-12.03,0,*6B
1513951318.69,35088,7.56,73318.5,-11.31,-12.03,-12.11,0,*67
1513951319.93,35089,7.56,73318.3,-11.31,-12.03,-12.11,0,*66
1513951321.15,35090,7.56,73306.5,-11.31,-12.03,-12.03,0,*6D
1513951322.39,35091,7.56,73304.5,-11.31,-12.03,-12.11,0,*6F
1513951323.66,35092,7.56,73270.8,-11.33,-12.03,-12.11,0,*6E
1513951324.92,35093,7.56,73270.3,-11.33,-12.03,-12.11,0,*6F
1513951326.21,35094,7.56,73278.3,-11.33,-12.11,-12.11,0,*6B
1513951327.48,35095,7.56,73296.0,-11.35,-12.15,-12.15,0,*6C
1513951328.77,35096,7.63,73302.3,-11.33,-12.11,-12.11,0,*69
1513951330.07,35097,7.56,73284.8,-11.33,-12.11,-12.11,0,*68
1513951331.33,35098,7.56,73270.8,-11.33,-12.03,-12.15,0,*60
1513951332.62,35099,7.56,73272.0,-11.33,-12.11,-12.11,0,*66
1513951333.91,35100,7.56,73308.8,-11.33,-12.11,-12.11,0,*67
1513951335.2,35101,7.56,73306.8,-11.33,-12.11,-12.15,0,*62
1513951336.47,35102,7.56,73302.5,-11.33,-12.11,-12.03,0,*66
1513951337.74,35103,7.56,73306.3,-11.33,-12.11,-12.03,0,*67
1513951339.03,35104,7.56,73316.0,-11.33,-12.11,-12.11,0,*63
1513951340.3,35105,7.56,73276.0,-11.33,-12.11,-12.03,0,*61
1513951341.59,35106,7.56,73260.5,-11.33,-12.15,-12.11,0,*65
1513951342.88,35107,7.56,73262.8,-11.33,-12.11,-12.11,0,*60
1513951344.18,35108,7.56,73262.8,-11.33,-12.11,-12.11,0,*6F
1513951345.47,35109,7.56,73262.5,-11.33,-12.11,-12.11,0,*6E
1513951346.74,35110,7.56,73274.5,-11.35,-12.15,-12.15,0,*60
1513951347.98,35111,7.56,73280.5,-11.35,-12.21,-12.15,0,*66
1513951349.28,35112,7.56,73304.0,-11.33,-12.11,-12.11,0,*64
1513951350.57,35113,7.56,73300.3,-11.33,-12.11,-12.15,0,*61
1513951351.86,35114,7.56,73306.8,-11.33,-12.11,-12.11,0,*62
1513951353.11,35115,7.56,73302.3,-11.35,-12.21,-12.07,0,*61
1513951354.37,35116,7.56,73292.5,-11.35,-12.15,-12.15,0,*66
1513951355.64,35117,7.56,73298.8,-11.35,-12.15,-12.15,0,*67
1513951356.91,35118,7.56,73284.3,-11.35,-12.15,-12.15,0,*68
1513951358.2,35119,7.56,73298.8,-11.33,-12.11,-12.11,0,*6F
1513951359.47,35120,7.56,73312.5,-11.35,-12.15,-12.07,0,*60
1513951360.73,35121,7.56,73304.8,-11.35,-12.15,-12.15,0,*62
1513951362.0,35122,7.56,73328.3,-11.35,-12.07,-12.15,0,*62
1513951363.27,35123,7.56,73336.8,-11.33,-12.11,-12.03,0,*65
1513951364.52,35124,7.56,73342.3,-11.35,-12.21,-12.15,0,*60
1513951365.78,35125,7.56,73306.8,-11.33,-12.11,-12.03,0,*63
1513951367.07,35126,7.56,73314.0,-11.33,-12.11,-12.15,0,*67
1513951368.34,35127,7.56,73292.5,-11.35,-12.15,-12.07,0,*67
1513951369.61,35128,7.56,73306.3,-11.35,-12.15,-12.07,0,*68
1513951370.83,35129,7.56,73282.0,-11.35,-12.03,-12.03,0,*6A
1513951372.1,35130,7.56,73278.0,-11.35,-12.15,-12.07,0,*61
1513951373.37,35131,7.56,73280.8,-11.35,-12.15,-12.07,0,*60
1513951374.63,35132,7.56,73286.0,-11.35,-12.15,-12.15,0,*60
1513951375.9,35133,7.56,73304.3,-11.35,-12.15,-12.07,0,*62
1513951377.17,35134,7.56,73304.8,-11.35,-12.15,-12.15,0,*66
1513951378.44,35135,7.56,73310.5,-11.33,-12.11,-12.03,0,*62
1513951379.71,35136,7.56,73320.3,-11.35,-12.07,-12.07,0,*64
1513951380.97,35137,7.56,73326.8,-11.33,-12.03,-11.97,0,*6D
1513951382.24,35138,7.56,73336.0,-11.35,-12.07,-12.07,0,*6A
1513951383.49,35139,7.56,73344.8,-11.35,-12.07,-12.03,0,*6F
1513951384.76,35140,7.56,73344.5,-11.35,-12.07,-12.07,0,*65
1513951386.03,35141,7.56,73344.0,-11.35,-12.07,-12.07,0,*64
1513951387.27,35142,7.56,73344.3,-11.35,-12.07,-12.03,0,*63
1513951388.52,35143,7.56,73346.3,-11.35,-12.07,-12.03,0,*62
1513951389.79,35144,7.56,73350.3,-11.33,-12.11,-12.03,0,*64
1513951391.05,35145,7.56,73340.0,-11.35,-12.07,-12.07,0,*60
1513951392.32,35146,7.56,73312.0,-11.35,-12.07,-12.07,0,*63
1513951393.59,35147,7.56,73300.5,-11.35,-12.07,-12.07,0,*62
1513951394.87,35148,7.56,73294.8,-11.35,-12.07,-12.07,0,*6D
1513951396.13,35149,7.56,73310.0,-11.33,-12.15,-12.03,0,*6D
1513951397.4,35150,7.56,73314.8,-11.35,-12.15,-12.15,0,*64
1513951398.66,35151,7.56,73312.8,-11.35,-12.15,-12.15,0,*65
1513951399.93,35152,7.56,73316.0,-11.35,-12.15,-12.07,0,*65
1513951401.2,35153,7.56,73322.5,-11.35,-12.15,-12.07,0,*64
1513951402.45,35154,7.56,73324.5,-11.35,-12.03,-12.07,0,*64
1513951403.72,35155,7.56,73326.0,-11.35,-12.07,-12.07,0,*61
1513951404.96,35156,7.56,73334.8,-11.35,-12.03,-12.07,0,*66
1513951406.23,35157,7.56,73346.3,-11.35,-12.07,-12.07,0,*63
1513951407.5,35158,7.56,73346.8,-11.35,-12.07,-12.07,0,*6C
1513951408.77,35159,7.56,73330.5,-11.35,-12.07,-12.07,0,*6D
1513951410.01,35160,7.56,73318.0,-11.35,-12.07,-12.03,0,*63
1513951411.28,35161,7.56,73334.8,-11.35,-12.07,-12.07,0,*66
1513951412.52,35162,7.56,73324.8,-11.33,-12.03,-12.03,0,*63
1513951413.77,35163,7.56,73314.8,-11.35,-12.03,-12.07,0,*60
1513951415.01,35164,7.56,73306.0,-11.35,-12.07,-12.03,0,*67
1513951416.28,35165,7.56,73328.5,-11.35,-12.15,-12.07,0,*61
1513951417.52,35166,7.56,73284.5,-11.35,-12.03,-12.07,0,*65
1513951418.79,35167,7.56,73252.8,-11.35,-12.07,-12.07,0,*60
1513951420.06,35168,7.56,73236.5,-11.35,-12.07,-11.93,0,*61
1513951421.33,35169,7.56,73280.0,-11.35,-12.07,-12.07,0,*6E
1513951422.6,35170,7.56,73266.8,-11.35,-12.15,-12.07,0,*65
1513951423.87,35171,7.56,73248.3,-11.35,-12.15,-12.07,0,*64
1513951425.14,35172,7.56,73250.8,-11.35,-12.07,-12.07,0,*64
1513951426.41,35173,7.56,73212.3,-11.33,-12.03,-12.11,0,*60
1513951427.64,35174,7.56,73170.3,-11.35,-12.21,-12.21,0,*62
1513951428.86,35175,7.56,73262.3,-11.35,-12.21,-12.21,0,*63
1513951430.11,35176,7.56,73236.8,-11.35,-12.21,-12.15,0,*67
1513951431.36,35177,7.56,73230.0,-11.35,-12.21,-12.15,0,*66
1513951432.6,35178,7.56,73258.5,-11.35,-12.21,-12.15,0,*69
1513951433.87,35179,7.56,73306.0,-11.35,-12.15,-12.15,0,*6F
1513951435.12,35180,7.56,73292.0,-11.35,-12.21,-12.15,0,*6E
1513951436.38,35181,7.56,73282.8,-11.35,-12.15,-12.15,0,*68
1513951437.65,35182,7.56,73306.0,-11.35,-12.15,-12.15,0,*6B
1513951438.94,35183,7.56,73306.8,-11.37,-12.15,-12.07,0,*6B
1513951440.21,35184,7.56,73302.0,-11.35,-12.15,-12.07,0,*6E
1513951441.48,35185,7.56,73274.0,-11.35,-12.07,-12.15,0,*6F
1513951442.75,35186,7.56,73266.0,-11.35,-12.15,-12.07,0,*6C
1513951444.02,35187,7.56,73288.8,-11.35,-12.07,-12.07,0,*6E
1513951445.29,35188,7.56,73290.5,-11.35,-12.07,-12.15,0,*62
1513951446.56,35189,7.56,73304.5,-11.35,-12.07,-12.07,0,*60
1513951447.85,35190,7.56,73306.0,-11.37,-12.07,-12.07,0,*6A
1513951449.15,35191,7.56,73284.5,-11.37,-12.07,-12.07,0,*6B
1513951450.42,35192,7.56,73286.5,-11.37,-12.15,-12.03,0,*6F
1513951451.69,35193,7.56,73294.5,-11.37,-12.15,-12.03,0,*6E
1513951452.94,35194,7.56,73270.3,-11.39,-12.11,-12.21,0,*63
1513951454.24,35195,7.56,73294.0,-11.37,-12.07,-12.07,0,*6F
1513951455.49,35196,7.56,73304.0,-11.39,-12.21,-12.07,0,*66
1513951456.76,35197,7.56,73306.5,-11.37,-12.03,-12.07,0,*69
1513951458.03,35198,7.56,73320.8,-11.37,-12.03,-12.07,0,*66
1513951459.28,35199,7.56,73336.5,-11.35,-12.07,-12.03,0,*65
1513951460.52,35200,7.56,73344.8,-11.35,-12.07,-12.03,0,*66
1513951461.76,35201,7.56,73352.8,-11.37,-12.03,-12.03,0,*61
1513951463.06,35202,7.56,73350.8,-11.37,-12.07,-12.07,0,*62
1513951464.3,35203,7.56,73334.5,-11.37,-12.03,-12.03,0,*63
1513951465.58,35204,7.56,73326.0,-11.37,-11.93,-12.03,0,*6E
1513951466.82,35205,7.56,73338.3,-11.37,-12.03,-12.03,0,*65
1513951468.07,35206,7.56,73340.0,-11.37,-12.03,-12.03,0,*66
1513951469.34,35207,7.56,73328.0,-11.37,-12.03,-11.93,0,*6D
1513951470.64,35208,7.56,73332.8,-11.37,-11.93,-11.93,0,*68
1513951471.94,35209,7.56,73332.3,-11.37,-11.89,-11.93,0,*62
1513951473.22,35210,7.56,73328.8,-11.35,-11.93,-11.89,0,*68
1513951474.49,35211,7.56,73326.0,-11.35,-11.93,-11.89,0,*69
1513951475.77,35212,7.56,73324.8,-11.35,-11.93,-11.89,0,*6A
1513951477.04,35213,7.56,73322.8,-11.35,-11.89,-11.89,0,*60
1513951478.31,35214,7.56,73326.3,-11.35,-11.93,-11.89,0,*6C
1513951479.58,35215,7.56,73322.3,-11.35,-11.89,-11.89,0,*66
1513951480.86,35216,7.56,73336.3,-11.35,-11.93,-11.93,0,*65
1513951482.13,35217,7.56,73320.5,-11.35,-11.89,-11.89,0,*64
1513951483.35,35218,7.56,73308.8,-11.35,-12.03,-12.03,0,*6B
1513951484.64,35219,7.56,73310.0,-11.33,-11.89,-11.97,0,*63
1513951485.89,35220,7.56,73308.0,-11.35,-11.93,-12.03,0,*6A
1513951487.11,35221,7.56,73310.0,-11.35,-12.03,-12.03,0,*61
1513951488.38,35222,7.56,73310.0,-11.35,-11.93,-11.93,0,*62
1513951489.62,35223,7.56,73310.8,-11.35,-12.03,-11.93,0,*69
1513951490.92,35224,7.56,73310.0,-11.33,-11.97,-11.89,0,*6D
1513951492.17,35225,7.56,73306.3,-11.35,-11.93,-12.03,0,*6F
1513951493.44,35226,7.56,73308.8,-11.35,-11.93,-11.93,0,*66
1513951494.72,35227,7.56,73314.5,-11.35,-11.93,-11.93,0,*67
1513951496.01,35228,7.56,73320.0,-11.33,-11.97,-11.89,0,*61
1513951497.26,35229,7.56,73318.8,-11.35,-11.93,-12.03,0,*63
1513951498.48,35230,7.56,73314.3,-11.35,-12.03,-12.03,0,*61
1513951499.7,35231,7.56,73326.5,-11.35,-12.03,-12.03,0,*60
1513951500.99,35232,7.56,73330.5,-11.33,-11.97,-11.97,0,*65
1513951502.23,35233,7.56,73316.3,-11.35,-12.03,-11.93,0,*68
1513951503.51,35234,7.56,73298.8,-11.35,-11.93,-11.93,0,*65
1513951504.79,35235,7.56,73296.5,-11.35,-11.93,-11.93,0,*64
1513951506.03,35236,7.56,73298.5,-11.35,-11.93,-12.03,0,*6D
1513951507.33,35237,7.56,73290.0,-11.33,-11.89,-11.89,0,*60
1513951508.57,35238,7.56,73296.0,-11.35,-12.03,-11.93,0,*63
1513951509.86,35239,7.56,73312.0,-11.33,-11.85,-11.85,0,*6E
1513951511.15,35240,7.56,73302.8,-11.33,-11.85,-11.89,0,*6C
1513951512.42,35241,7.56,73280.3,-11.35,-11.89,-11.93,0,*6C
1513951513.72,35242,7.56,73296.3,-11.33,-11.89,-11.89,0,*62
1513951514.99,35243,7.56,73282.8,-11.35,-11.89,-11.93,0,*6E
1513951516.24,35244,7.56,73296.5,-11.35,-11.93,-12.03,0,*68
1513951517.53,35245,7.56,73312.0,-11.33,-11.97,-11.89,0,*6A
1513951518.75,35246,7.56,73330.3,-11.35,-12.03,-12.03,0,*60
1513951520.04,35247,7.56,73324.0,-11.33,-11.97,-11.97,0,*67
1513951521.33,35248,7.56,73330.8,-11.33,-11.97,-11.97,0,*68
1513951522.54,35249,7.56,73318.5,-11.35,-12.03,-12.03,0,*6F
1513951523.83,35250,7.56,73342.8,-11.33,-11.89,-11.97,0,*6E
1513951525.05,35251,7.56,73334.0,-11.35,-12.03,-12.03,0,*66
1513951526.32,35252,7.56,73338.8,-11.35,-12.07,-11.93,0,*6B
1513951527.62,35253,7.56,73328.3,-11.33,-11.97,-11.89,0,*6D
1513951528.88,35254,7.56,73324.3,-11.33,-12.03,-11.89,0,*64
1513951530.12,35255,7.56,73324.3,-11.35,-12.03,-12.07,0,*66
1513951531.34,35256,7.56,73316.5,-11.35,-12.03,-12.03,0,*61
1513951532.61,35257,7.56,73304.3,-11.35,-12.07,-12.07,0,*60
1513951533.9,35258,7.56,73292.3,-11.33,-11.97,-11.97,0,*69
1513951535.19,35259,7.56,73300.0,-11.33,-11.97,-11.97,0,*68
1513951536.44,35260,7.56,73324.3,-11.35,-12.07,-12.03,0,*60
1513951537.73,35261,7.56,73320.3,-11.33,-11.97,-11.97,0,*63
1513951538.99,35262,7.56,73326.3,-11.33,-12.03,-11.89,0,*61
1513951540.28,35263,7.56,73340.3,-11.33,-11.97,-11.97,0,*61
1513951541.55,35264,7.56,73346.0,-11.35,-12.07,-11.93,0,*6E
1513951542.83,35265,7.56,73332.8,-11.35,-11.93,-11.93,0,*61
1513951544.09,35266,7.56,73312.5,-11.33,-12.03,-11.97,0,*6A
1513951545.31,35267,7.56,73294.5,-11.35,-12.03,-12.03,0,*63
1513951546.58,35268,7.56,73272.3,-11.33,-11.97,-12.03,0,*64
1513951547.79,35269,7.56,73262.0,-11.35,-12.03,-12.03,0,*6D
1513951549.03,35270,7.56,73276.8,-11.33,-12.03,-12.03,0,*63
1513951550.27,35271,7.56,73274.5,-11.33,-12.03,-12.03,0,*62
1513951551.54,35272,7.56,73290.5,-11.35,-12.07,-12.15,0,*64
1513951552.81,35273,7.56,73318.0,-11.35,-12.07,-12.07,0,*66
1513951554.07,35274,7.56,73314.3,-11.33,-12.03,-11.97,0,*69
1513951555.34,35275,7.56,73310.5,-11.35,-12.15,-12.07,0,*63
1513951556.61,35276,7.56,73312.5,-11.35,-12.07,-12.07,0,*63
1513951557.88,35277,7.56,73312.5,-11.35,-12.07,-12.07,0,*62
1513951559.15,35278,7.56,73306.0,-11.35,-12.07,-12.07,0,*6D
1513951560.42,35279,7.56,73296.0,-11.35,-12.07,-12.07,0,*6C
1513951561.67,35280,7.56,73286.3,-11.35,-12.07,-12.03,0,*6E
1513951562.91,35281,7.56,73278.8,-11.35,-12.07,-12.03,0,*6F
1513951564.16,35282,7.56,73286.3,-11.35,-12.03,-12.07,0,*6C
1513951565.4,35283,7.56,73282.8,-11.35,-12.07,-12.03,0,*6D
1513951566.67,35284,7.56,73282.0,-11.35,-12.07,-12.07,0,*6E
1513951567.91,35285,7.56,73274.3,-11.33,-12.03,-12.03,0,*69
1513951569.13,35286,7.56,73266.5,-11.35,-12.03,-12.03,0,*6C
1513951570.37,35287,7.56,73266.5,-11.35,-12.03,-12.07,0,*69
1513951571.61,35288,7.56,73280.5,-11.33,-12.03,-12.03,0,*64
1513951572.85,35289,7.56,73284.3,-11.33,-12.03,-12.03,0,*65
1513951574.09,35290,7.56,73290.5,-11.33,-12.03,-12.03,0,*6D
1513951575.36,35291,7.56,73268.5,-11.33,-11.97,-12.03,0,*62
1513951576.63,35292,7.56,73258.3,-11.35,-12.07,-12.07,0,*69
1513951577.92,35293,7.56,73252.0,-11.33,-11.97,-11.97,0,*6E
1513951579.18,35294,7.56,73266.0,-11.35,-12.07,-12.15,0,*6C
1513951580.45,35295,7.56,73282.3,-11.35,-12.15,-12.07,0,*6D
1513951581.7,35296,7.56,73298.3,-11.35,-12.07,-12.03,0,*69
1513951582.91,35297,7.56,73314.8,-11.35,-12.03,-12.03,0,*6C
1513951584.18,35298,7.56,73326.3,-11.35,-12.07,-12.07,0,*63
1513951585.45,35299,7.56,73332.8,-11.35,-12.07,-12.07,0,*62
1513951586.7,35300,7.56,73320.0,-11.35,-12.07,-12.03,0,*67
1513951587.94,35301,7.56,73330.3,-11.35,-12.07,-12.03,0,*66
1513951589.21,35302,7.56,73340.0,-11.35,-12.07,-12.15,0,*62
1513951590.48,35303,7.56,73342.5,-11.35,-12.15,-12.07,0,*63
1513951591.75,35304,7.56,73330.5,-11.35,-12.07,-12.07,0,*67
1513951593.02,35305,7.56,73328.3,-11.35,-12.07,-12.15,0,*65
1513951594.29,35306,7.56,73316.0,-11.35,-12.07,-12.07,0,*65
1513951595.53,35307,7.56,73326.3,-11.35,-12.03,-12.07,0,*60
1513951596.8,35308,7.56,73314.3,-11.35,-12.07,-12.15,0,*68
1513951598.06,35309,7.56,73282.3,-11.35,-12.15,-12.15,0,*6A
1513951599.31,35310,7.56,73290.0,-11.35,-12.15,-12.21,0,*65
1513951600.58,35311,7.56,73276.3,-11.37,-12.21,-12.15,0,*66
1513951601.84,35312,7.56,73260.3,-11.37,-12.21,-12.21,0,*62
1513951603.11,35313,7.56,73302.8,-11.37,-12.21,-12.15,0,*64
1513951604.36,35314,7.56,73310.0,-11.37,-12.21,-12.21,0,*64
1513951605.62,35315,7.56,73322.5,-11.37,-12.21,-12.21,0,*65
1513951606.89,35316,7.56,73310.8,-11.37,-12.21,-12.15,0,*61
1513951608.18,35317,7.56,73296.5,-11.37,-12.15,-12.15,0,*67
1513951609.44,35318,7.56,73306.5,-11.37,-12.21,-12.21,0,*68
1513951610.71,35319,7.56,73308.3,-11.37,-12.21,-12.15,0,*6E
1513951611.98,35320,7.56,73296.0,-11.37,-12.21,-12.15,0,*64
1513951613.24,35321,7.56,73292.8,-11.37,-12.21,-12.21,0,*62
1513951614.51,35322,7.56,73294.0,-11.37,-12.21,-12.15,0,*66
1513951615.76,35323,7.56,73296.3,-11.37,-12.21,-12.21,0,*60
1513951617.04,35324,7.56,73292.8,-11.37,-12.15,-12.21,0,*60
1513951618.29,35325,7.56,73288.0,-11.37,-12.21,-12.21,0,*66
1513951619.56,35326,7.56,73290.8,-11.37,-12.21,-12.15,0,*62
1513951620.82,35327,7.56,73296.5,-11.37,-12.21,-12.21,0,*64
1513951622.09,35328,7.56,73294.8,-11.37,-12.21,-12.15,0,*6C
1513951623.32,35329,7.56,73304.5,-11.39,-12.25,-12.21,0,*60
1513951624.54,35330,7.56,73306.5,-11.39,-12.21,-12.25,0,*68
1513951625.8,35331,7.56,73298.0,-11.37,-12.21,-12.21,0,*63
1513951627.02,35332,7.56,73298.5,-11.39,-12.25,-12.25,0,*6E
1513951628.25,35333,7.56,73294.5,-11.39,-12.25,-12.25,0,*6F
1513951629.5,35334,7.56,73294.8,-11.37,-12.21,-12.21,0,*66
1513951630.77,35335,7.56,73286.0,-11.37,-12.21,-12.15,0,*60
1513951632.02,35336,7.56,73292.3,-11.39,-12.21,-12.15,0,*6D
1513951633.25,35337,7.56,73296.5,-11.39,-12.25,-12.21,0,*6F
1513951634.48,35338,7.56,73284.0,-11.39,-12.25,-12.21,0,*60
1513951635.73,35339,7.56,73274.5,-11.37,-12.21,-12.21,0,*6B
1513951636.95,35340,7.56,73274.5,-11.39,-12.25,-12.25,0,*6B
1513951638.18,35341,7.56,73274.0,-11.39,-12.21,-12.21,0,*6A
1513951639.41,35342,7.56,73274.5,-11.39,-12.21,-12.25,0,*6D
1513951640.66,35343,7.56,73276.3,-11.37,-12.21,-12.21,0,*66
1513951641.94,35344,7.56,73290.5,-11.37,-12.15,-12.21,0,*66
1513951643.23,35345,7.56,73294.8,-11.37,-12.15,-12.15,0,*60
1513951644.46,35346,7.56,73296.3,-11.39,-12.21,-12.21,0,*6D
1513951645.75,35347,7.56,73296.3,-11.37,-12.15,-12.15,0,*62
1513951646.98,35348,7.56,73308.8,-11.39,-12.25,-12.21,0,*67
1513951648.21,35349,7.56,73312.5,-11.39,-12.21,-12.25,0,*66
1513951649.43,35350,7.56,73314.3,-11.39,-12.25,-12.21,0,*6E
1513951650.65,35351,7.56,73314.8,-11.41,-12.21,-12.25,0,*60
1513951651.87,35352,7.56,73320.3,-11.41,-12.21,-12.25,0,*63
1513951653.09,35353,7.56,73326.8,-11.39,-12.21,-12.25,0,*6D
1513951654.32,35354,7.56,73324.3,-11.39,-12.25,-12.25,0,*6E
1513951655.53,35355,7.56,73326.3,-11.41,-12.25,-12.21,0,*64
1513951656.75,35356,7.56,73322.5,-11.41,-12.25,-12.21,0,*67
1513951657.98,35357,7.56,73320.5,-11.39,-12.21,-12.21,0,*6D
1513951659.2,35358,7.63,73320.3,-11.41,-12.21,-12.21,0,*6D
1513951660.41,35359,7.56,73320.0,-11.41,-12.25,-12.21,0,*68
1513951661.64,35360,7.56,73320.5,-11.39,-12.25,-12.25,0,*69
1513951662.87,35361,7.56,73318.0,-11.39,-12.21,-12.21,0,*68
1513951664.09,35362,7.56,73322.0,-11.41,-12.21,-12.21,0,*64
1513951665.3,35363,7.56,73314.0,-11.41,-12.21,-12.25,0,*61
1513951666.53,35364,7.56,73308.3,-11.39,-12.21,-12.21,0,*6D
1513951667.75,35365,7.56,73312.0,-11.41,-12.21,-12.21,0,*63
1513951668.97,35366,7.56,73320.3,-11.41,-12.21,-12.21,0,*60
1513951670.19,35367,7.56,73330.8,-11.41,-12.25,-12.21,0,*65
1513951671.43,35368,7.56,73336.3,-11.41,-12.21,-12.11,0,*6D
1513951672.65,35369,7.56,73338.0,-11.41,-12.21,-12.21,0,*6F
1513951673.91,35370,7.56,73338.8,-11.41,-12.11,-12.11,0,*67
1513951675.17,35371,7.56,73334.8,-11.41,-12.11,-12.11,0,*66
1513951676.41,35372,7.56,73336.8,-11.41,-12.11,-12.21,0,*66
1513951677.65,35373,7.56,73340.8,-11.41,-12.11,-12.21,0,*67
1513951678.91,35374,7.56,73346.0,-11.41,-12.11,-12.11,0,*63
1513951680.16,35375,7.56,73342.5,-11.41,-12.21,-12.11,0,*61
1513951681.4,35376,7.56,73342.3,-11.41,-12.11,-12.21,0,*62
1513951682.61,35377,7.56,73344.8,-11.41,-12.21,-12.25,0,*64
1513951683.85,35378,7.56,73324.5,-11.41,-12.21,-12.11,0,*6C
1513951685.1,35379,7.56,73316.0,-11.41,-12.21,-12.11,0,*6D
1513951686.34,35380,7.56,73318.0,-11.41,-12.11,-12.21,0,*6B
1513951687.58,35381,7.56,73344.0,-11.39,-12.25,-12.11,0,*61
1513951688.81,35382,7.56,73338.8,-11.39,-12.25,-12.25,0,*65
1513951690.03,35383,7.56,73336.8,-11.41,-12.25,-12.21,0,*6F
1513951691.24,35384,7.56,73332.5,-11.41,-12.21,-12.25,0,*68
1513951692.46,35385,7.56,73330.5,-11.41,-12.21,-12.21,0,*6D
1513951693.7,35386,7.56,73326.3,-11.43,-12.25,-12.21,0,*68
1513951694.92,35387,7.56,73328.0,-11.41,-12.25,-12.25,0,*6F
1513951696.13,35388,7.56,73316.3,-11.41,-12.25,-12.21,0,*64
1513951697.35,35389,7.56,73308.5,-11.41,-12.21,-12.25,0,*65
1513951698.56,35390,7.56,73304.3,-11.41,-12.29,-12.29,0,*69
1513951699.8,35391,7.56,73292.5,-11.43,-12.29,-12.25,0,*66
1513951701.05,35392,7.56,73284.5,-11.43,-12.29,-12.29,0,*69
1513951702.29,35393,7.56,73282.5,-11.43,-12.25,-12.29,0,*64
1513951703.53,35394,7.56,73284.0,-11.43,-12.29,-12.29,0,*6F